LEMUR-2 JEROEN

Last updated on Fri Jun 10 2016 05:57:29 GMT+0000 (Coordinated Universal Time)

1 40934U 15052E 16160.58978415 .00001385 00000-0 10435-3 0 9997 2 40934 6.0060 16.7623 0011587 353.2249 6.7714 14.76569090 37629
UTC large
Height (km)
Speed (km/s)
/
Latitude / Longitude
Inclination (degrees)
Orbital Period (minutes)
Azimuth
Elevation
Range (km)
Doppler Factor

Next 0 passes for location: London (51.5072 / 0.1276)

Sorry there are no passes over London.
LEMUR-2 JEROEN